This demonstration page uses our WeatherBlox Daily Observations layout. Learn more.

Left ArrowRight Arrow

38.20091, -84.87328

Hourly Observations for August 17, 2016

Temp ( °F °C ) Dew Point ( °F °C ) Humidity (%) Winds ( mph kmh ) Pressure ( in mb ) Visibility ( mi km ) Precip ( " mm )
12:53 am 00:53 Mostly Cloudy 76 24.4 71 21.7 85 85 Calm 30.15 1021 10 16 0.00 0.00
1:53 am 01:53 Mostly Cloudy 75 23.9 70 21.1 84 84 Calm 30.15 1021 10 16 0.00 0.00
2:53 am 02:53 Mostly Cloudy 74 23.3 71 21.7 91 91 Calm 30.13 1020 10 16 0.00 0.00
3:53 am 03:53 Mostly Cloudy 74 23.3 71 21.7 91 91 Calm 30.13 1020 10 16 0.00 0.00
4:53 am 04:53 Partly Cloudy 74 23.3 71 21.7 91 91 SE 3 6 30.13 1020 10 16 0.00 0.00
5:53 am 05:53 Mostly Cloudy 74 23.3 71 21.7 91 91 SE 5 7 30.12 1020 9 14 0.00 0.00
6:04 am 06:04 Mostly Cloudy 74 23.3 71 21.7 91 91 SE 3 6 30.12 1020 9 14 0.00 0.00
6:53 am 06:53 Mostly Cloudy with Light Rain 74 23.3 72 22.2 94 94 SE 5 7 30.13 1020 5 8 0.04 1.02
7:53 am 07:53 Mostly Cloudy with Rain 74 23.3 72 22.2 94 94 SSW 5 7 30.13 1020 3 5 0.17 4.32
8:53 am 08:53 Mostly Sunny 75 23.9 71 21.7 88 88 SSW 3 6 30.13 1020 10 16 0.07 1.78
9:21 am 09:21 Partly Cloudy with Light Rain 75 23.9 71 21.7 88 88 SSW 7 11 30.12 1020 10 16 0.01 0.25
9:53 am 09:53 Mostly Cloudy 75 23.9 72 22.2 90 90 WSW 6 9 30.13 1020 10 16 0.01 0.25
10:15 am 10:15 Cloudy with Light Rain 75 23.9 72 22.2 90 90 SW 5 7 30.12 1020 10 16 0.00 0.03
10:53 am 10:53 Mostly Cloudy 76 24.4 72 22.2 88 88 SW 5 7 30.14 1021 10 16 0.00 0.03
11:49 am 11:49 Cloudy 75 24 72 22 89 89 SW 6 9 30.15 1021 10 16 0.01 0.25
11:53 am 11:53 Mostly Cloudy 77 25 72 22.2 85 85 WSW 5 7 30.14 1021 10 16 0.01 0.25
12:41 pm 12:41 Cloudy 78 25.6 72 22.2 82 82 WSW 6 9 30.12 1020 10 16 0.00 0.00
12:51 pm 12:51 Cloudy 77 25 72 22 83 83 WSW 5 7 30.12 1020 10 16 0.00 0.00
12:53 pm 12:53 Cloudy 77 25 72 22.2 85 85 WSW 5 7 30.13 1020 10 16 0.00 0.00
1:02 pm 13:02 Mostly Cloudy 79 26.1 72 22.2 79 79 W 7 11 30.12 1020 10 16 0.00 0.00
1:41 pm 13:41 Mostly Cloudy 81 27.2 73 22.8 77 77 W 6 9 30.09 1019 10 16 0.00 0.00
1:48 pm 13:48 Cloudy 81 27 72 22 74 74 W 7 11 30.09 1019 10 16 0.00 0.00
1:53 pm 13:53 Cloudy with Light Rain 79 26.1 71 21.7 77 77 W 7 11 30.10 1019 10 16 0.00 0.03
2:53 pm 14:53 Mostly Cloudy with Light Rain 78 25.6 72 22.2 82 82 WSW 8 13 30.09 1019 10 16 0.01 0.25
3:53 pm 15:53 Mostly Cloudy 76 24.4 71 21.7 85 85 SW 10 17 30.09 1019 10 16 0.01 0.25
4:53 pm 16:53 Partly Cloudy with Light Rain 74 23.3 71 21.7 91 91 W 6 9 30.08 1019 10 16 0.00 0.03
5:13 pm 17:13 Mostly Cloudy with Light Rain 74 23.3 71 21.7 91 91 WSW 8 13 30.06 1018 10 16 0.00 0.03
5:53 pm 17:53 Partly Cloudy 77 25 72 22.2 85 85 W 7 11 30.09 1019 10 16 0.00 0.03
6:53 pm 18:53 Mostly Sunny 77 25 71 21.7 82 82 W 5 7 30.08 1019 10 16 0.00 0.00
7:53 pm 19:53 Sunny 75 23.9 71 21.7 88 88 WSW 3 6 30.07 1018 10 16 0.00 0.00
8:53 pm 20:53 Clear 74 23.3 71 21.7 91 91 SW 5 7 30.09 1019 10 16 0.00 0.00
9:53 pm 21:53 Clear 74 23.3 70 21.1 88 88 S 3 6 30.11 1020 10 16 0.00 0.00
10:18 pm 22:18 Partly Cloudy 74 23.3 70 21.1 88 88 S 3 6 30.12 1020 10 16 0.00 0.00
10:29 pm 22:29 Mostly Cloudy 73 22.8 70 21.1 90 90 Calm 30.12 1020 10 16 0.00 0.00
10:45 pm 22:45 Partly Cloudy 73 22.8 70 21.1 90 90 S 5 7 30.12 1020 10 16 0.00 0.00
10:53 pm 22:53 Mostly Clear 73 22.8 70 21.1 90 90 Calm 30.12 1020 10 16 0.00 0.00
11:21 pm 23:21 Mostly Cloudy 73 22.8 70 21.1 90 90 SSW 3 6 30.12 1020 10 16 0.00 0.00
11:45 pm 23:45 Cloudy 73 22.8 71 21.7 94 94 SW 6 9 30.12 1020 9 14 0.00 0.00
11:53 pm 23:53 Cloudy 73 22.8 71 21.7 94 94 WSW 5 7 30.12 1020 8 13 0.00 0.00

Powered by AerisWeather